AAL1566 KMIA-KRDU

Flight info

Callsign AAL1566
Flight time 1h 46m
Altitude 36000
Route FOLZZ3 ALYRA DCT GRUBR/N0465F370 Y299 SEELO DCT GARIC BLOGS3
Aircraft B38M/M-SDE1FGHILORVWXY/HB1

Departure

Time 2026-05-06 22:42
Airport Miami International Airport (KMIA)

Arrival

Time 2026-05-07 00:28
Airport Raleigh-Durham International Airport (KRDU)
Time Latitude Longitude Altitude Speed Heading
2026-05-06 22:23 25.79738 -80.28254 17 ft 0 kts 358°
2026-05-06 22:32 25.79737 -80.28254 17 ft 2 kts 358°
2026-05-06 22:32 25.79720 -80.28254 20 ft 2 kts 358°
2026-05-06 22:32 25.79704 -80.28253 19 ft 2 kts 358°
2026-05-06 22:33 25.79688 -80.28250 21 ft 2 kts 342°
2026-05-06 22:33 25.79672 -80.28245 19 ft 2 kts 334°
2026-05-06 22:33 25.79660 -80.28233 20 ft 2 kts 301°
2026-05-06 22:33 25.79656 -80.28226 21 ft 0 kts 296°
2026-05-06 22:35 25.79658 -80.28230 21 ft 2 kts 295°
2026-05-06 22:35 25.79667 -80.28254 19 ft 5 kts 292°
2026-05-06 22:35 25.79680 -80.28299 19 ft 7 kts 271°
2026-05-06 22:35 25.79680 -80.28309 17 ft 0 kts 264°
2026-05-06 22:37 25.79676 -80.28342 19 ft 12 kts 262°
2026-05-06 22:37 25.79667 -80.28462 17 ft 18 kts 267°
2026-05-06 22:38 25.79649 -80.28604 17 ft 19 kts 267°
2026-05-06 22:38 25.79641 -80.28753 17 ft 19 kts 276°
2026-05-06 22:38 25.79687 -80.28819 17 ft 12 kts 345°
2026-05-06 22:38 25.79774 -80.28824 18 ft 14 kts
2026-05-06 22:39 25.79875 -80.28825 18 ft 16 kts 358°
2026-05-06 22:39 25.79991 -80.28841 19 ft 20 kts 329°
2026-05-06 22:39 25.80009 -80.28984 19 ft 22 kts 265°
2026-05-06 22:39 25.79999 -80.29222 19 ft 25 kts 267°
2026-05-06 22:40 25.79992 -80.29356 20 ft 27 kts 267°
2026-05-06 22:40 25.79983 -80.29581 17 ft 29 kts 266°
2026-05-06 22:40 25.79973 -80.29815 17 ft 31 kts 266°
2026-05-06 22:40 25.79993 -80.30048 16 ft 28 kts 289°
2026-05-06 22:41 25.80081 -80.30000 16 ft 44 kts 87°
2026-05-06 22:41 25.80105 -80.29375 18 ft 116 kts 87°
2026-05-06 22:41 25.80147 -80.28253 92 ft 169 kts 88°
2026-05-06 22:42 25.80145 -80.26811 558 ft 203 kts 93°
2026-05-06 22:42 25.79736 -80.25379 1742 ft 191 kts 116°
2026-05-06 22:42 25.79142 -80.23967 2513 ft 205 kts 113°
2026-05-06 22:42 25.78545 -80.22454 3342 ft 225 kts 113°
2026-05-06 22:43 25.77894 -80.20785 4046 ft 246 kts 113°
2026-05-06 22:43 25.77189 -80.18970 4955 ft 260 kts 113°
2026-05-06 22:43 25.76393 -80.17177 6020 ft 265 kts 119°
2026-05-06 22:43 25.75472 -80.15303 6731 ft 282 kts 119°
2026-05-06 22:44 25.74635 -80.13299 7427 ft 294 kts 103°
2026-05-06 22:44 25.74553 -80.11035 8442 ft 294 kts 78°
2026-05-06 22:44 25.75293 -80.08945 9264 ft 298 kts 53°
2026-05-06 22:44 25.76604 -80.07172 10194 ft 300 kts 47°
2026-05-06 22:45 25.77994 -80.05363 10729 ft 318 kts 47°
2026-05-06 22:45 25.79486 -80.03444 11128 ft 338 kts 47°
2026-05-06 22:45 25.81069 -80.01420 11537 ft 355 kts 47°
2026-05-06 22:45 25.82712 -79.99328 12078 ft 365 kts 47°
2026-05-06 22:46 25.84392 -79.97191 12943 ft 366 kts 46°
2026-05-06 22:46 25.86084 -79.95041 13691 ft 371 kts 46°
2026-05-06 22:46 25.87787 -79.92876 14399 ft 374 kts 46°
2026-05-06 22:46 25.89507 -79.90687 15057 ft 378 kts 46°
2026-05-06 22:47 25.91247 -79.88473 15698 ft 383 kts 46°
2026-05-06 22:47 25.93010 -79.86228 16332 ft 387 kts 46°
2026-05-06 22:47 25.94786 -79.83965 16965 ft 391 kts 46°
2026-05-06 22:47 25.96579 -79.81679 17573 ft 395 kts 46°
2026-05-06 22:48 25.98396 -79.79363 18164 ft 399 kts 46°
2026-05-06 22:48 26.00231 -79.77022 18701 ft 403 kts 45°
2026-05-06 22:48 26.02077 -79.74666 19199 ft 406 kts 45°
2026-05-06 22:48 26.03941 -79.72284 19698 ft 410 kts 45°
2026-05-06 22:49 26.05817 -79.69887 20188 ft 413 kts 45°
2026-05-06 22:49 26.07693 -79.67489 20666 ft 417 kts 45°
2026-05-06 22:49 26.09624 -79.65020 21156 ft 420 kts 45°
2026-05-06 22:49 26.11380 -79.62436 21615 ft 427 kts 51°
2026-05-06 22:50 26.13099 -79.59677 22090 ft 430 kts 51°
2026-05-06 22:50 26.14808 -79.56975 22532 ft 434 kts 50°
2026-05-06 22:50 26.16560 -79.54229 22991 ft 437 kts 50°
2026-05-06 22:50 26.18337 -79.51453 23426 ft 441 kts 50°
2026-05-06 22:51 26.20125 -79.48658 23827 ft 444 kts 50°
2026-05-06 22:51 26.21924 -79.45849 24197 ft 447 kts 50°
2026-05-06 22:51 26.23732 -79.43022 24587 ft 449 kts 50°
2026-05-06 22:51 26.25552 -79.40174 24969 ft 452 kts 50°
2026-05-06 22:52 26.27386 -79.37311 25344 ft 454 kts 48°
2026-05-06 22:52 26.29532 -79.34773 25688 ft 446 kts 32°
2026-05-06 22:52 26.32067 -79.32803 26026 ft 446 kts 28°
2026-05-06 22:52 26.34660 -79.30880 26387 ft 449 kts 27°
2026-05-06 22:53 26.37277 -79.28975 26766 ft 451 kts 27°
2026-05-06 22:53 26.39915 -79.27077 27135 ft 453 kts 27°
2026-05-06 22:53 26.42583 -79.25170 27510 ft 455 kts 27°
2026-05-06 22:53 26.45224 -79.23285 27870 ft 458 kts 26°
2026-05-06 22:54 26.47949 -79.21341 28239 ft 460 kts 26°
2026-05-06 22:54 26.50620 -79.19433 28586 ft 463 kts 26°
2026-05-06 22:54 26.53376 -79.17465 28944 ft 465 kts 26°
2026-05-06 22:54 26.56108 -79.15513 29285 ft 467 kts 26°
2026-05-06 22:55 26.58810 -79.13581 29625 ft 470 kts 26°
2026-05-06 22:55 26.61574 -79.11603 29951 ft 472 kts 26°
2026-05-06 22:55 26.64342 -79.09621 30267 ft 474 kts 26°
2026-05-06 22:55 26.67134 -79.07621 30564 ft 476 kts 26°
2026-05-06 22:56 26.69918 -79.05626 30890 ft 477 kts 26°
2026-05-06 22:56 26.72709 -79.03623 31268 ft 476 kts 26°
2026-05-06 22:56 26.75494 -79.01625 31678 ft 474 kts 26°
2026-05-06 22:56 26.78260 -78.99639 32096 ft 472 kts 25°
2026-05-06 22:57 26.81013 -78.97661 32537 ft 471 kts 25°
2026-05-06 22:57 26.83771 -78.95677 32960 ft 469 kts 25°
2026-05-06 22:57 26.86516 -78.93703 33386 ft 467 kts 25°
2026-05-06 22:57 26.89200 -78.91772 33821 ft 465 kts 25°
2026-05-06 22:58 26.91923 -78.89811 34241 ft 463 kts 24°
2026-05-06 22:58 26.94628 -78.87862 34614 ft 461 kts 24°
2026-05-06 22:58 26.97327 -78.85916 34971 ft 460 kts 24°
2026-05-06 22:58 27.00013 -78.83978 35322 ft 459 kts 24°
2026-05-06 22:59 27.02691 -78.82045 35718 ft 456 kts 24°
2026-05-06 22:59 27.05346 -78.80128 36037 ft 455 kts 23°
2026-05-06 22:59 27.08008 -78.78203 36089 ft 454 kts 23°
2026-05-06 23:00 27.13296 -78.74375 36084 ft 451 kts 24°
2026-05-06 23:00 27.18573 -78.70555 36080 ft 451 kts 24°
2026-05-06 23:01 27.23850 -78.66731 36086 ft 451 kts 23°
2026-05-06 23:01 27.29310 -78.63579 36071 ft 425 kts
2026-05-06 23:02 27.35090 -78.62555 36072 ft 420 kts 359°
2026-05-06 23:02 27.40891 -78.61733 36082 ft 419 kts 359°
2026-05-06 23:03 27.46682 -78.60972 36089 ft 419 kts 358°
2026-05-06 23:03 27.52476 -78.60219 36087 ft 419 kts 358°
2026-05-06 23:04 27.58261 -78.59468 36094 ft 418 kts 358°
2026-05-06 23:04 27.64049 -78.58715 36089 ft 418 kts 358°
2026-05-06 23:05 27.69840 -78.57960 36106 ft 418 kts 358°
2026-05-06 23:05 27.75617 -78.57208 36091 ft 418 kts 358°
2026-05-06 23:06 27.81358 -78.56459 36085 ft 418 kts 358°
2026-05-06 23:06 27.87138 -78.55704 36088 ft 419 kts 358°
2026-05-06 23:07 27.92935 -78.54945 36087 ft 419 kts 358°
2026-05-06 23:07 27.98725 -78.54188 36090 ft 419 kts 358°
2026-05-06 23:08 28.04516 -78.53430 36089 ft 419 kts 358°
2026-05-06 23:08 28.10327 -78.52667 36090 ft 420 kts 358°
2026-05-06 23:09 28.16121 -78.51906 36087 ft 420 kts 359°
2026-05-06 23:09 28.21930 -78.51142 36092 ft 420 kts 359°
2026-05-06 23:10 28.27735 -78.50378 36089 ft 420 kts 359°
2026-05-06 23:10 28.33544 -78.49613 36093 ft 420 kts 359°
2026-05-06 23:11 28.39355 -78.48847 36090 ft 421 kts 359°
2026-05-06 23:11 28.45173 -78.48079 36092 ft 421 kts 359°
2026-05-06 23:12 28.50957 -78.47314 36089 ft 421 kts 359°
2026-05-06 23:12 28.56780 -78.46543 36092 ft 421 kts 359°
2026-05-06 23:13 28.62605 -78.45772 36091 ft 422 kts 359°
2026-05-06 23:13 28.68441 -78.44997 36092 ft 422 kts 359°
2026-05-06 23:14 28.74247 -78.44227 36092 ft 422 kts 359°
2026-05-06 23:14 28.80089 -78.43450 36094 ft 423 kts 359°
2026-05-06 23:15 28.85938 -78.42672 36092 ft 423 kts 359°
2026-05-06 23:15 28.91790 -78.41892 36098 ft 424 kts 359°
2026-05-06 23:16 28.97650 -78.41110 36100 ft 424 kts 359°
2026-05-06 23:16 29.03519 -78.40327 36096 ft 424 kts 359°
2026-05-06 23:17 29.09389 -78.39542 36096 ft 425 kts 359°
2026-05-06 23:17 29.15268 -78.38755 36097 ft 425 kts 359°
2026-05-06 23:18 29.21142 -78.37968 36095 ft 426 kts 359°
2026-05-06 23:18 29.27037 -78.37177 36096 ft 426 kts 359°
2026-05-06 23:19 29.32904 -78.36389 36094 ft 426 kts 359°
2026-05-06 23:19 29.38845 -78.35591 36093 ft 432 kts 359°
2026-05-06 23:20 29.44858 -78.34782 36094 ft 437 kts 359°
2026-05-06 23:20 29.50741 -78.35101 36107 ft 417 kts 340°
2026-05-06 23:21 29.56193 -78.36752 36115 ft 391 kts 339°
2026-05-06 23:21 29.61316 -78.38385 36110 ft 379 kts 339°
2026-05-06 23:22 29.66376 -78.40029 36093 ft 378 kts 339°
2026-05-06 23:22 29.71441 -78.41678 36097 ft 378 kts 339°
2026-05-06 23:23 29.76500 -78.43327 36096 ft 378 kts 338°
2026-05-06 23:23 29.81638 -78.45004 36095 ft 389 kts 339°
2026-05-06 23:24 29.86902 -78.46723 36092 ft 396 kts 339°
2026-05-06 23:24 29.92199 -78.48455 36097 ft 395 kts 339°
2026-05-06 23:25 29.97492 -78.50188 36095 ft 395 kts 339°
2026-05-06 23:25 30.01888 -78.51629 36096 ft 395 kts 338°
2026-05-06 23:26 30.07179 -78.53365 36092 ft 395 kts 339°
2026-05-06 23:26 30.12473 -78.55102 36096 ft 395 kts 339°
2026-05-06 23:26 30.15216 -78.55578 36083 ft 407 kts 354°
2026-05-06 23:27 30.18070 -78.55292 36096 ft 413 kts 357°
2026-05-06 23:27 30.23806 -78.54604 36099 ft 415 kts 358°
2026-05-06 23:28 30.29532 -78.53821 36089 ft 415 kts 359°
2026-05-06 23:28 30.35267 -78.53005 36094 ft 415 kts 359°
2026-05-06 23:29 30.40997 -78.52182 36086 ft 415 kts 359°
2026-05-06 23:29 30.46728 -78.51249 35859 ft 416 kts 359°
2026-05-06 23:29 30.49598 -78.50786 36001 ft 418 kts 359°
2026-05-06 23:30 30.52486 -78.50319 36099 ft 421 kts 359°
2026-05-06 23:30 30.58297 -78.49379 36087 ft 424 kts 359°
2026-05-06 23:31 30.64142 -78.48432 36091 ft 425 kts 359°
2026-05-06 23:31 30.69994 -78.47482 36096 ft 425 kts 359°
2026-05-06 23:32 30.75851 -78.46531 36091 ft 425 kts 359°
2026-05-06 23:32 30.81702 -78.45580 36094 ft 425 kts 359°
2026-05-06 23:33 30.87559 -78.44626 36091 ft 425 kts 359°
2026-05-06 23:33 30.93415 -78.43671 36093 ft 425 kts 359°
2026-05-06 23:34 30.99268 -78.42716 36087 ft 425 kts 359°
2026-05-06 23:34 31.05134 -78.41757 36089 ft 425 kts 359°
2026-05-06 23:35 31.10985 -78.40800 36088 ft 425 kts 359°
2026-05-06 23:35 31.16844 -78.39840 36085 ft 425 kts 358°
2026-05-06 23:36 31.22706 -78.38879 36088 ft 425 kts 358°
2026-05-06 23:36 31.28571 -78.37915 36087 ft 425 kts 358°
2026-05-06 23:37 31.34435 -78.36951 36087 ft 426 kts 358°
2026-05-06 23:37 31.40297 -78.35985 36086 ft 426 kts 358°
2026-05-06 23:38 31.46121 -78.35026 36087 ft 426 kts 358°
2026-05-06 23:38 31.51995 -78.34055 36085 ft 426 kts 358°
2026-05-06 23:39 31.57863 -78.33086 36083 ft 426 kts 358°
2026-05-06 23:39 31.63743 -78.32113 36087 ft 427 kts 358°
2026-05-06 23:40 31.69620 -78.31139 36080 ft 427 kts 358°
2026-05-06 23:40 31.75579 -78.30151 36074 ft 438 kts 358°
2026-05-06 23:41 31.81686 -78.29136 36069 ft 448 kts 358°
2026-05-06 23:41 31.87868 -78.28107 36080 ft 449 kts 358°
2026-05-06 23:42 31.94051 -78.27077 36075 ft 449 kts 358°
2026-05-06 23:42 32.00216 -78.26050 36074 ft 449 kts 358°
2026-05-06 23:43 32.06418 -78.25130 36072 ft 448 kts 357°
2026-05-06 23:43 32.12601 -78.24231 36074 ft 448 kts 357°
2026-05-06 23:44 32.18782 -78.23328 36074 ft 448 kts 357°
2026-05-06 23:44 32.24973 -78.22423 36074 ft 448 kts 357°
2026-05-06 23:45 32.31150 -78.21517 36069 ft 448 kts 357°
2026-05-06 23:45 32.37344 -78.20608 36067 ft 448 kts 357°
2026-05-06 23:46 32.43525 -78.19700 36067 ft 448 kts 356°
2026-05-06 23:46 32.49722 -78.18788 36064 ft 448 kts 356°
2026-05-06 23:47 32.55909 -78.17876 36062 ft 448 kts 356°
2026-05-06 23:47 32.62098 -78.16963 36059 ft 448 kts 356°
2026-05-06 23:48 32.68290 -78.16048 36061 ft 449 kts 356°
2026-05-06 23:48 32.74491 -78.15130 36057 ft 449 kts 356°
2026-05-06 23:49 32.80696 -78.14211 36056 ft 449 kts 356°
2026-05-06 23:49 32.86856 -78.13296 36054 ft 449 kts 356°
2026-05-06 23:50 32.93108 -78.12367 36053 ft 450 kts 356°
2026-05-06 23:50 33.02381 -78.10987 36048 ft 450 kts 356°
2026-05-06 23:51 33.08601 -78.10059 36050 ft 451 kts 356°
2026-05-06 23:51 33.14818 -78.09131 36047 ft 451 kts 356°
2026-05-06 23:52 33.21049 -78.08199 36043 ft 451 kts 356°
2026-05-06 23:52 33.27286 -78.07264 36038 ft 451 kts 356°
2026-05-06 23:53 33.33518 -78.06330 36038 ft 452 kts 356°
2026-05-06 23:53 33.39753 -78.05394 36035 ft 452 kts 356°
2026-05-06 23:54 33.45987 -78.04456 36035 ft 452 kts 356°
2026-05-06 23:54 33.52227 -78.03516 36031 ft 452 kts 356°
2026-05-06 23:55 33.58469 -78.02574 36033 ft 452 kts 356°
2026-05-06 23:55 33.64706 -78.01632 36026 ft 452 kts 356°
2026-05-06 23:56 33.70935 -78.00689 36024 ft 452 kts 356°
2026-05-06 23:56 33.77183 -77.99743 36023 ft 452 kts 356°
2026-05-06 23:57 33.83409 -77.98799 36022 ft 451 kts 356°
2026-05-06 23:57 33.89636 -77.97896 36018 ft 449 kts 355°
2026-05-06 23:58 33.95846 -77.97041 36023 ft 449 kts 355°
2026-05-06 23:58 34.02054 -77.96181 36024 ft 449 kts 355°
2026-05-06 23:59 34.08173 -77.95330 36021 ft 439 kts 355°
2026-05-06 23:59 34.14228 -77.94489 36016 ft 437 kts 355°
2026-05-07 00:00 34.20275 -77.93647 36012 ft 437 kts 355°
2026-05-07 00:00 34.25298 -77.92946 36010 ft 437 kts 355°
2026-05-07 00:01 34.32353 -77.91961 36013 ft 437 kts 355°
2026-05-07 00:01 34.38399 -77.91115 36013 ft 437 kts 355°
2026-05-07 00:02 34.44421 -77.90270 35687 ft 435 kts 355°
2026-05-07 00:02 34.47434 -77.89848 35454 ft 436 kts 355°
2026-05-07 00:02 34.50463 -77.89422 35225 ft 438 kts 355°
2026-05-07 00:03 34.53494 -77.88997 34981 ft 440 kts 356°
2026-05-07 00:03 34.56500 -77.88574 34750 ft 442 kts 356°
2026-05-07 00:03 34.59560 -77.88144 34521 ft 444 kts 356°
2026-05-07 00:03 34.62637 -77.87710 34291 ft 446 kts 356°
2026-05-07 00:04 34.65698 -77.87277 33981 ft 435 kts 356°
2026-05-07 00:04 34.68654 -77.86861 33585 ft 426 kts 356°
2026-05-07 00:04 34.71601 -77.86447 33131 ft 426 kts 357°
2026-05-07 00:04 34.74553 -77.86031 32628 ft 428 kts 358°
2026-05-07 00:05 34.77524 -77.85611 32128 ft 432 kts 358°
2026-05-07 00:05 34.80522 -77.85187 31624 ft 435 kts 359°
2026-05-07 00:05 34.83532 -77.84761 31130 ft 438 kts 359°
2026-05-07 00:05 34.86569 -77.84331 30647 ft 442 kts
2026-05-07 00:06 34.89640 -77.83896 30155 ft 445 kts
2026-05-07 00:06 34.92726 -77.83459 29522 ft 447 kts
2026-05-07 00:06 34.95811 -77.83022 28844 ft 449 kts
2026-05-07 00:06 34.98922 -77.82580 28181 ft 450 kts
2026-05-07 00:07 35.02041 -77.82137 27523 ft 451 kts
2026-05-07 00:07 35.05155 -77.81694 26891 ft 452 kts
2026-05-07 00:07 35.08292 -77.81248 26262 ft 453 kts
2026-05-07 00:07 35.11428 -77.80801 25659 ft 454 kts
2026-05-07 00:08 35.14561 -77.80354 25072 ft 454 kts
2026-05-07 00:08 35.17693 -77.79907 24478 ft 449 kts
2026-05-07 00:08 35.20777 -77.79467 23920 ft 444 kts
2026-05-07 00:08 35.23829 -77.79031 23326 ft 441 kts
2026-05-07 00:09 35.26864 -77.78596 22690 ft 438 kts
2026-05-07 00:09 35.29876 -77.78165 22049 ft 433 kts
2026-05-07 00:09 35.32856 -77.77739 21423 ft 429 kts
2026-05-07 00:09 35.35796 -77.77317 20813 ft 424 kts
2026-05-07 00:10 35.38713 -77.77024 20417 ft 414 kts 352°
2026-05-07 00:10 35.41502 -77.77569 20117 ft 401 kts 337°
2026-05-07 00:10 35.43999 -77.78920 19609 ft 387 kts 324°
2026-05-07 00:10 35.46118 -77.80891 19077 ft 378 kts 313°
2026-05-07 00:11 35.47763 -77.83284 18575 ft 357 kts 302°
2026-05-07 00:11 35.49110 -77.85774 17960 ft 346 kts 300°
2026-05-07 00:11 35.50328 -77.88262 17274 ft 336 kts 298°
2026-05-07 00:11 35.51458 -77.90740 16603 ft 329 kts 297°
2026-05-07 00:12 35.52526 -77.93188 15947 ft 322 kts 296°
2026-05-07 00:12 35.53556 -77.95610 15291 ft 319 kts 295°
2026-05-07 00:12 35.54580 -77.98053 14630 ft 325 kts 295°
2026-05-07 00:12 35.55267 -77.99706 14195 ft 329 kts 295°
2026-05-07 00:13 35.56313 -78.02235 13518 ft 335 kts 295°
2026-05-07 00:13 35.57361 -78.04782 13113 ft 331 kts 295°
2026-05-07 00:13 35.58367 -78.07228 13053 ft 317 kts 294°
2026-05-07 00:13 35.59342 -78.09601 13049 ft 303 kts 294°
2026-05-07 00:14 35.60267 -78.11855 13048 ft 289 kts 294°
2026-05-07 00:14 35.61155 -78.14021 13042 ft 280 kts 294°
2026-05-07 00:14 35.62025 -78.16145 12851 ft 278 kts 294°
2026-05-07 00:14 35.62892 -78.18265 12634 ft 277 kts 294°
2026-05-07 00:15 35.63757 -78.20379 12265 ft 276 kts 294°
2026-05-07 00:15 35.64612 -78.22472 11823 ft 273 kts 294°
2026-05-07 00:15 35.65461 -78.24548 11385 ft 272 kts 294°
2026-05-07 00:15 35.66396 -78.26576 11127 ft 271 kts 296°
2026-05-07 00:16 35.67341 -78.28580 10855 ft 271 kts 296°
2026-05-07 00:16 35.68274 -78.30572 10410 ft 268 kts 295°
2026-05-07 00:16 35.69199 -78.32552 9999 ft 266 kts 295°
2026-05-07 00:16 35.70115 -78.34517 9560 ft 264 kts 295°
2026-05-07 00:17 35.71022 -78.36467 9099 ft 262 kts 295°
2026-05-07 00:17 35.71924 -78.38406 8646 ft 261 kts 296°
2026-05-07 00:17 35.72856 -78.40313 8222 ft 261 kts 302°
2026-05-07 00:17 35.74029 -78.42018 8088 ft 262 kts 306°
2026-05-07 00:18 35.75218 -78.43714 8006 ft 262 kts 306°
2026-05-07 00:18 35.76405 -78.45417 7994 ft 262 kts 306°
2026-05-07 00:18 35.77588 -78.47117 7907 ft 263 kts 306°
2026-05-07 00:18 35.78768 -78.48816 7561 ft 256 kts 305°
2026-05-07 00:19 35.79905 -78.50458 7244 ft 249 kts 305°
2026-05-07 00:19 35.80824 -78.51787 7002 ft 248 kts 305°
2026-05-07 00:19 35.81940 -78.53399 6680 ft 246 kts 305°
2026-05-07 00:19 35.83159 -78.54886 6356 ft 250 kts 321°
2026-05-07 00:20 35.84620 -78.55902 6319 ft 231 kts 323°
2026-05-07 00:20 35.85974 -78.56844 6152 ft 215 kts 323°
2026-05-07 00:20 35.87256 -78.57732 5927 ft 211 kts 323°
2026-05-07 00:20 35.88539 -78.58613 5684 ft 211 kts 324°
2026-05-07 00:21 35.89979 -78.59096 5420 ft 223 kts 352°
2026-05-07 00:21 35.91517 -78.58640 5185 ft 236 kts 22°
2026-05-07 00:21 35.92813 -78.57346 5055 ft 243 kts 41°
2026-05-07 00:21 35.94020 -78.55874 5001 ft 241 kts 40°
2026-05-07 00:22 35.95276 -78.54696 4892 ft 220 kts 15°
2026-05-07 00:22 35.96681 -78.54496 4765 ft 191 kts 338°
2026-05-07 00:22 35.97779 -78.55201 4600 ft 173 kts 313°
2026-05-07 00:22 35.98572 -78.56265 4368 ft 161 kts 287°
2026-05-07 00:23 35.98598 -78.57547 4130 ft 153 kts 247°
2026-05-07 00:23 35.97896 -78.58541 3971 ft 158 kts 223°
2026-05-07 00:23 35.97142 -78.59484 3738 ft 154 kts 246°
2026-05-07 00:23 35.96896 -78.60770 3563 ft 155 kts 260°
2026-05-07 00:24 35.96764 -78.62103 3389 ft 153 kts 261°
2026-05-07 00:24 35.96629 -78.63392 3195 ft 154 kts 261°
2026-05-07 00:24 35.96491 -78.64701 3012 ft 154 kts 258°
2026-05-07 00:24 35.96173 -78.65960 2833 ft 154 kts 245°
2026-05-07 00:25 35.95653 -78.67123 2664 ft 156 kts 241°
2026-05-07 00:25 35.95120 -78.68266 2473 ft 148 kts 240°
2026-05-07 00:25 35.94595 -78.69275 2323 ft 136 kts 237°
2026-05-07 00:25 35.94027 -78.70213 2130 ft 138 kts 233°
2026-05-07 00:26 35.93388 -78.71116 1949 ft 141 kts 230°
2026-05-07 00:26 35.92711 -78.71990 1769 ft 139 kts 228°
2026-05-07 00:26 35.92031 -78.72844 1582 ft 141 kts 226°
2026-05-07 00:26 35.91335 -78.73706 1407 ft 143 kts 227°
2026-05-07 00:27 35.90628 -78.74583 1231 ft 146 kts 226°
2026-05-07 00:27 35.89900 -78.75485 997 ft 150 kts 225°
2026-05-07 00:27 35.89164 -78.76397 832 ft 150 kts 224°
2026-05-07 00:27 35.88425 -78.77311 628 ft 150 kts 225°
2026-05-07 00:28 35.87713 -78.78192 429 ft 137 kts 225°
2026-05-07 00:28 35.87192 -78.78835 420 ft 72 kts 224°
2026-05-07 00:28 35.86876 -78.79228 412 ft 62 kts 225°
2026-05-07 00:28 35.86624 -78.79535 412 ft 42 kts 225°
2026-05-07 00:29 35.86447 -78.79762 407 ft 9 kts 238°
2026-05-07 00:29 35.86459 -78.79806 411 ft 2 kts 342°
2026-05-07 00:30 35.86629 -78.79724 412 ft 14 kts 43°
2026-05-07 00:30 35.86702 -78.79635 414 ft 16 kts 46°
2026-05-07 00:30 35.86781 -78.79535 417 ft 17 kts 41°
2026-05-07 00:30 35.86867 -78.79425 416 ft 19 kts 46°
2026-05-07 00:31 35.86967 -78.79307 420 ft 21 kts 43°
2026-05-07 00:31 35.87072 -78.79179 419 ft 16 kts 44°
2026-05-07 00:31 35.87128 -78.79110 423 ft 12 kts 46°
2026-05-07 00:31 35.87184 -78.79037 420 ft 12 kts 46°
2026-05-07 00:32 35.87252 -78.78986 424 ft 12 kts 356°
2026-05-07 00:32 35.87316 -78.78994 422 ft 7 kts
2026-05-07 00:32 35.87337 -78.79012 420 ft 0 kts 311°